This demonstration page uses our WeatherBlox Daily Observations layout. Learn more.

39.08367, -84.50855

Hourly Observations for October 14, 2019

Temp ( °F °C ) Dew Point ( °F °C ) Humidity (%) Winds ( mph kmh ) Pressure ( in mb ) Visibility ( mi km ) Precip ( " mm )
12:53 am 00:53 Clear 45 7.2 41 5 86 86 SW 7 11 29.98 1015 10 16.0934 0 0
1:53 am 01:53 Clear 47 8.3 42 5.6 83 83 SW 9 15 29.98 1015 10 16.0934 0 0
2:53 am 02:53 Clear 47 8.3 40 4.4 77 77 SSW 8 13 29.99 1016 10 16.0934 0 0
3:53 am 03:53 Clear 47 8.3 40 4.4 77 77 SSW 6 9 30 1016 10 16.0934 0 0
4:53 am 04:53 Clear 46 7.8 40 4.4 79 79 Calm 30.01 1016 10 16.0934 0 0
5:53 am 05:53 Clear 48 8.9 40 4.4 74 74 S 5 7 30.03 1017 10 16.0934 0 0
6:53 am 06:53 Clear 41 5 40 4.4 96 96 Calm 30.06 1018 10 16.0934 0 0
7:53 am 07:53 Sunny 40 4.4 39 3.9 97 97 Calm 30.08 1019 10 16.0934 0 0
8:53 am 08:53 Sunny 45 7.2 42 5.6 90 90 Calm 30.1 1019 10 16.0934 0 0
9:53 am 09:53 Sunny 52 11.1 42 5.6 69 69 SW 3 6 30.12 1020 10 16.0934 0 0
10:53 am 10:53 Sunny 56 13.3 43 6.1 62 62 Calm 30.12 1020 10 16.0934 0 0
11:53 am 11:53 Sunny 61 16.1 38 3.3 43 43 VRB 3 6 30.12 1020 10 16.0934 0 0
12:53 pm 12:53 Sunny 64 17.8 36 2.2 35 35 NW 6 9 30.11 1020 10 16.0934 0 0
1:53 pm 13:53 Sunny 66 18.9 37 2.8 34 34 SW 10 17 30.1 1019 10 16.0934 0 0
2:53 pm 14:53 Sunny 68 20 36 2.2 31 31 W 10 17 30.07 1018 10 16.0934 0 0
3:53 pm 15:53 Sunny 68 20 36 2.2 31 31 SW 9 15 30.06 1018 10 16.0934 0 0
4:53 pm 16:53 Sunny 68 20 35 1.7 30 30 W 10 17 30.06 1018 10 16.0934 0 0
5:53 pm 17:53 Sunny 66 18.9 36 2.2 33 33 W 8 13 30.06 1018 10 16.0934 0 0
6:53 pm 18:53 Sunny 62 16.7 36 2.2 38 38 W 6 9 30.07 1018 10 16.0934 0 0
7:53 pm 19:53 Clear 52 11.1 41 5 66 66 Calm 30.1 1019 10 16.0934 0 0
8:53 pm 20:53 Clear 48 8.9 42 5.6 80 80 Calm 30.11 1020 10 16.0934 0 0
9:53 pm 21:53 Clear 46 7.8 42 5.6 86 86 Calm 30.12 1020 10 16.0934 0 0
10:53 pm 22:53 Clear 44 6.7 42 5.6 93 93 Calm 30.12 1020 10 16.0934 0 0
11:53 pm 23:53 Clear 42 5.6 41 5 96 96 Calm 30.13 1020 10 16.0934 0 0

Powered by AerisWeather